Eagle, AK

6:32 AM AKDT on June 25, 2017 (GMT -0800)
Eagle

Weather History for PAEG - May, 2013

Change the Weather History Date:

Tuesday, May 7, 2013

  Actual Average (PABN) Record (PABN)
Temperature  
Mean Temperature 32 °F -  
Max Temperature 48 °F 42 °F 62 °F (2005)
Min Temperature 19 °F 33 °F 24 °F (2012)
Degree Days  
Heating Degree Days 32    
Moisture  
Dew Point 12 °F    
Average Humidity 43    
Maximum Humidity 71    
Minimum Humidity 22    
Precipitation  
Precipitation 0.00 in - - ()
Sea Level Pressure  
Sea Level Pressure 30.22 in    
Wind  
Wind Speed 1 mph (NNW)    
Max Wind Speed 8 mph    
Max Gust Speed -    
Visibility 10 miles    
Events      
Averages and records for this station are not official NWS values.
T = Trace of Precipitation, MM = Missing Value Source: NWS Daily Summary

Daily Weather History Graph

Daily Weather History Graph

Search for Another Location

Airport or City:

Trip Planner

Search our weather history database for the weather conditions in past years. The results will help you decide how hot, cold, wet, or windy it might be!

Date:

Astronomy

May. 07, 2013 Rise Set
Actual Time 4:29 AM AKDT 10:15 PM AKDT
Civil Twilight 3:03 AM AKDT 11:44 PM AKDT
Nautical Twilight Sun does not set Sun does not set
Astronomical Twilight Sun does not set Sun does not set
Moon 4:03 AM AKDT (5/7) 7:42 PM AKDT (5/7)
Length of Visible Light 20h 40m
Length of Day
17h 46m
Waning Crescent, 5% of the Moon is Illuminated
May 7
Waning Crescent
May 9
New
May 17
First Quarter
May 24
Full
May 31
Last Quarter

Hourly Weather History & Observations

Time (AKDT) Temp. Windchill Dew Point Humidity Pressure Visibility Wind Dir Wind Speed Gust Speed Precip Events Conditions
12:53 AM 21.0 °F - 10.9 °F 65% 30.19 in 10.0 mi Calm Calm - N/A   Clear
1:53 AM 19.9 °F - 10.9 °F 68% 30.21 in 10.0 mi Calm Calm - N/A   Partly Cloudy
2:53 AM 21.0 °F - 10.9 °F 65% 30.22 in 10.0 mi Calm Calm - N/A   Mostly Cloudy
3:53 AM 19.0 °F - 10.9 °F 71% 30.23 in 10.0 mi Calm Calm - N/A   Mostly Cloudy
4:53 AM 19.9 °F - 10.9 °F 68% 30.25 in 10.0 mi Calm Calm - N/A   Overcast
5:53 AM 21.0 °F - 12.9 °F 71% 30.26 in 10.0 mi Calm Calm - N/A   Overcast
6:53 AM 26.1 °F - 12.0 °F 55% 30.26 in 10.0 mi Calm Calm - N/A   Overcast
7:53 AM 30.9 °F - 12.0 °F 46% 30.26 in 10.0 mi Calm Calm - N/A   Overcast
8:53 AM 35.1 °F - 12.9 °F 40% 30.26 in 10.0 mi Calm Calm - N/A   Clear
9:53 AM 39.0 °F - 12.0 °F 33% 30.25 in 10.0 mi Calm Calm - N/A   Clear
10:53 AM 43.0 °F - 12.0 °F 28% 30.24 in 10.0 mi Calm Calm - N/A   Clear
11:53 AM 44.1 °F - 12.0 °F 27% 30.24 in 10.0 mi Calm Calm - N/A   Overcast
12:53 PM 44.1 °F 42.5 °F 12.9 °F 28% 30.23 in 10.0 mi NNE 3.5 mph - N/A   Overcast
1:53 PM 44.1 °F 39.5 °F 10.0 °F 25% 30.22 in 10.0 mi NNW 8.1 mph - N/A   Mostly Cloudy
2:53 PM 45.0 °F 41.2 °F 10.0 °F 24% 30.21 in 10.0 mi North 6.9 mph - N/A   Overcast
3:53 PM 46.9 °F - 10.0 °F 22% 30.20 in 10.0 mi Variable 5.8 mph - N/A   Mostly Cloudy
4:53 PM 45.0 °F 40.6 °F 12.0 °F 26% 30.19 in 10.0 mi NW 8.1 mph - N/A   Overcast
5:53 PM 46.9 °F - 12.0 °F 24% 30.19 in 10.0 mi Calm Calm - N/A   Overcast
6:53 PM 46.0 °F 43.1 °F 14.0 °F 28% 30.18 in 10.0 mi WNW 5.8 mph - N/A   Overcast
7:53 PM 46.0 °F 43.9 °F 14.0 °F 28% 30.17 in 10.0 mi NNW 4.6 mph - N/A   Mostly Cloudy
8:53 PM 43.0 °F 41.3 °F 12.9 °F 30% 30.17 in 10.0 mi WNW 3.5 mph - N/A   Mostly Cloudy
9:53 PM 37.0 °F - 12.0 °F 36% 30.18 in 10.0 mi Calm Calm - N/A   Clear
10:53 PM 30.9 °F - 15.1 °F 52% 30.20 in 10.0 mi Calm Calm - N/A   Mostly Cloudy
11:53 PM 28.0 °F - 17.1 °F 63% 30.21 in 10.0 mi Calm Calm - N/A   Mostly Cloudy